Погода в Тугуре

Россия / Хабаровский край     53°46′25″N   136°49′28″E
темп.,
°C
ветер,
м/с
пор.,
м/с
влажн.,
%
обл.,
%
осадки,
мм/ч
давл.,
гПа
погр.,
м
20 июня, вс
вс2001:00+7с1165100 0.0 101110
04:00+8ююв006581 0.0 101010
07:00+12ююв1155100 0.0 101082
10:00+17вюв114770 0.0 1009420
13:00+21юв12437 0.0 1008789
16:00+22всв22446 0.0 1006748
19:00+17ссв33626 0.0 1007126
22:00+12с11735 0.0 100810
21 июня, пн
пн2101:00+11с117729 0.0 100811
04:00+8с228378 0.0 100915
07:00+10ссв236995 0.0 1010131
10:00+14ссв445774 0.0 1010291
13:00+16ссв445380 0.0 1010324
16:00+14ссв555875 0.0 1009256
19:00+11ссв336839 0.0 1008144
22:00+7с238168 0.0 100948
22 июня, вт
вт2201:00+6ссв2281100 0.0 100826
04:00+5ссв228494 0.0 100852
07:00+9всв217219 0.0 1008121
10:00+14св216151 0.0 1007311
13:00+9ссв347599 0.0 1007132
16:00+13ссв5564100 0.0 1007299
19:00+10ссв447310 0.0 1007193
22:00+5ссв239315 0.0 100866
23 июня, ср
ср2301:00+4ссв359699 0.0 1009137
04:00+4св2398100 0.0 1010121
07:00+5ссв349697 0.0 1011167
10:00+8св448573 0.0 1011338
13:00+12св446823 0.0 1011586
16:00+11ссв4674100 0.0 1011246
19:00+9ссв34809 0.0 1012211
22:00+4ссв239740 0.0 101357
24 июня, чт
чт2401:00+4ссв229856 0.0 101360
04:00+3с239883 0.0 1013101
07:00+5ссв239398 0.0 1013186
10:00+7ссв4481100 0.0 1013293
13:00+11ссв557211 0.0 1012403
16:00+11ссв556710 0.0 1012323
19:00+8ссв457811 0.0 1012196
22:00+4с229641 0.0 101345